Location: Luxembourg
(49.6117°N, 6.1300°E)
Time: 05:30:05
(UTC+01:00)

N. Korean satellite - Pass Details

Date: 26 January 2019
Orbit: 456 x 510 km, 97.2° (Epoch: 21 February)

Event Time Altitude Azimuth Distance (km) Brightness Sun altitude
Rises 06:30:23 0° 18° (NNE) 2,618 10.4 -17.0°
Reaches altitude 10° 06:32:35 10° 26° (NNE) 1,721 9.5 -16.6°
Maximum altitude 06:36:06 41° 98° (E) 734 8.0 -16.1°
Drops below altitude 10° 06:39:33 10° 170° (S) 1,679 9.6 -15.5°
Sets 06:41:40 0° 177° (S) 2,545 10.4 -15.2°
